contact:dominique.lefevre@mio.osupytheas.fr, maurice.libes@osupytheas.fr, didier.mallarino@osupytheas.fr
Project:EMSO http://www.emso-fr.org/EMSO-France
Depth: 2436.0 m
Title:EMSO Ligure Ouest : Data MII capteur MICROCAT
DateTime_Computer,Latitude,Longitude,Temperature,Conductivity,Pressure,DateTime_Instrument
DateTime_Computer,Latitude,Longitude,degC,S m-1,dbar,DateTime_Instrument
2022-12-09T00:00:17Z,42.805,6.029,13.3019,4.60091,2470.577,2022-12-09T02:06:12Z
2022-12-09T00:03:20Z,42.805,6.029,13.3022,4.60092,2470.577,2022-12-09T02:09:15Z
2022-12-09T00:06:23Z,42.805,6.029,13.3028,4.60104,2470.577,2022-12-09T02:12:18Z
2022-12-09T00:09:26Z,42.805,6.029,13.3021,4.60093,2470.577,2022-12-09T02:15:21Z
2022-12-09T00:12:29Z,42.805,6.029,13.3024,4.60095,2470.53,2022-12-09T02:18:24Z
2022-12-09T00:15:32Z,42.805,6.029,13.3034,4.60095,2470.53,2022-12-09T02:21:27Z
2022-12-09T00:18:35Z,42.805,6.029,13.3021,4.60096,2470.591,2022-12-09T02:24:30Z
2022-12-09T00:21:38Z,42.805,6.029,13.3015,4.60081,2470.53,2022-12-09T02:27:33Z
2022-12-09T00:24:41Z,42.805,6.029,13.3029,4.60110,2470.577,2022-12-09T02:30:36Z
2022-12-09T00:27:44Z,42.805,6.029,13.3019,4.60098,2470.553,2022-12-09T02:33:39Z
2022-12-09T00:30:47Z,42.805,6.029,13.3021,4.60080,2470.567,2022-12-09T02:36:42Z
2022-12-09T00:33:50Z,42.805,6.029,13.3021,4.60077,2470.544,2022-12-09T02:39:46Z
2022-12-09T00:36:53Z,42.805,6.029,13.3023,4.60088,2470.544,2022-12-09T02:42:49Z
2022-12-09T00:39:57Z,42.805,6.029,13.3021,4.60086,2470.53,2022-12-09T02:45:52Z
2022-12-09T00:43:00Z,42.805,6.029,13.3016,4.60079,2470.577,2022-12-09T02:48:55Z
2022-12-09T00:46:03Z,42.805,6.029,13.3018,4.60089,2470.553,2022-12-09T02:51:58Z
2022-12-09T00:49:06Z,42.805,6.029,13.3017,4.60079,2470.553,2022-12-09T02:55:01Z
2022-12-09T00:52:09Z,42.805,6.029,13.3020,4.60090,2470.577,2022-12-09T02:58:04Z
2022-12-09T00:55:12Z,42.805,6.029,13.3036,4.60107,2470.553,2022-12-09T03:01:07Z
2022-12-09T00:58:15Z,42.805,6.029,13.3019,4.60088,2470.53,2022-12-09T03:04:10Z
2022-12-09T01:01:18Z,42.805,6.029,13.3014,4.60078,2470.507,2022-12-09T03:07:13Z
2022-12-09T01:04:21Z,42.805,6.029,13.3021,4.60082,2470.52,2022-12-09T03:10:16Z
2022-12-09T01:07:24Z,42.805,6.029,13.3017,4.60096,2470.567,2022-12-09T03:13:19Z
2022-12-09T01:10:27Z,42.805,6.029,13.3027,4.60094,2470.53,2022-12-09T03:16:23Z
2022-12-09T01:13:30Z,42.805,6.029,13.3021,4.60084,2470.544,2022-12-09T03:19:26Z
2022-12-09T01:16:33Z,42.805,6.029,13.3017,4.60086,2470.53,2022-12-09T03:22:29Z
2022-12-09T01:19:37Z,42.805,6.029,13.3030,4.60104,2470.553,2022-12-09T03:25:32Z
2022-12-09T01:22:40Z,42.805,6.029,13.3040,4.60099,2470.53,2022-12-09T03:28:35Z
2022-12-09T01:25:43Z,42.805,6.029,13.3024,4.60107,2470.567,2022-12-09T03:31:38Z
2022-12-09T01:28:46Z,42.805,6.029,13.3033,4.60104,2470.553,2022-12-09T03:34:41Z
2022-12-09T01:31:49Z,42.805,6.029,13.3019,4.60078,2470.577,2022-12-09T03:37:44Z
2022-12-09T01:34:52Z,42.805,6.029,13.3029,4.60097,2470.567,2022-12-09T03:40:47Z
2022-12-09T01:37:55Z,42.805,6.029,13.3021,4.60094,2470.567,2022-12-09T03:43:50Z
2022-12-09T01:40:58Z,42.805,6.029,13.3018,4.60084,2470.553,2022-12-09T03:46:53Z
2022-12-09T01:44:01Z,42.805,6.029,13.3024,4.60087,2470.507,2022-12-09T03:49:56Z
2022-12-09T01:47:04Z,42.805,6.029,13.3027,4.60105,2470.577,2022-12-09T03:53:00Z
2022-12-09T01:50:07Z,42.805,6.029,13.3026,4.60087,2470.507,2022-12-09T03:56:03Z
2022-12-09T01:53:10Z,42.805,6.029,13.3017,4.60092,2470.553,2022-12-09T03:59:06Z
2022-12-09T01:56:14Z,42.805,6.029,13.3027,4.60086,2470.544,2022-12-09T04:02:09Z
2022-12-09T01:59:17Z,42.805,6.029,13.3029,4.60082,2470.553,2022-12-09T04:05:12Z
2022-12-09T02:02:20Z,42.805,6.029,13.3023,4.60092,2470.577,2022-12-09T04:08:15Z
2022-12-09T02:05:23Z,42.805,6.029,13.3035,4.60119,2470.553,2022-12-09T04:11:18Z
2022-12-09T02:08:26Z,42.805,6.029,13.3024,4.60110,2470.591,2022-12-09T04:14:21Z
2022-12-09T02:11:29Z,42.805,6.029,13.3021,4.60107,2470.53,2022-12-09T04:17:24Z
2022-12-09T02:14:32Z,42.805,6.029,13.3021,4.60097,2470.553,2022-12-09T04:20:27Z
2022-12-09T02:17:35Z,42.805,6.029,13.3034,4.60099,2470.53,2022-12-09T04:23:30Z
2022-12-09T02:20:38Z,42.805,6.029,13.3024,4.60104,2470.567,2022-12-09T04:26:33Z
2022-12-09T02:23:41Z,42.805,6.029,13.3024,4.60101,2470.567,2022-12-09T04:29:36Z
2022-12-09T02:26:44Z,42.805,6.029,13.3037,4.60097,2470.53,2022-12-09T04:32:40Z
2022-12-09T02:29:47Z,42.805,6.029,13.3036,4.60109,2470.577,2022-12-09T04:35:43Z
2022-12-09T02:32:50Z,42.805,6.029,13.3028,4.60137,2470.553,2022-12-09T04:38:46Z
2022-12-09T02:35:54Z,42.805,6.029,13.3043,4.60102,2470.544,2022-12-09T04:41:49Z
2022-12-09T02:38:57Z,42.805,6.029,13.3019,4.60107,2470.591,2022-12-09T04:44:52Z
2022-12-09T02:42:00Z,42.805,6.029,13.3026,4.60103,2470.553,2022-12-09T04:47:55Z
2022-12-09T02:45:03Z,42.805,6.029,13.3026,4.60098,2470.567,2022-12-09T04:50:58Z
2022-12-09T02:48:06Z,42.805,6.029,13.3036,4.60127,2470.553,2022-12-09T04:54:01Z
2022-12-09T02:51:09Z,42.805,6.029,13.3027,4.60114,2470.553,2022-12-09T04:57:04Z
2022-12-09T02:54:12Z,42.805,6.029,13.3034,4.60127,2470.553,2022-12-09T05:00:07Z
2022-12-09T02:57:15Z,42.805,6.029,13.3021,4.60123,2470.577,2022-12-09T05:03:10Z
2022-12-09T03:00:18Z,42.805,6.029,13.3020,4.60094,2470.591,2022-12-09T05:06:13Z
2022-12-09T03:03:21Z,42.805,6.029,13.3029,4.60089,2470.586,2022-12-09T05:09:17Z
2022-12-09T03:06:24Z,42.805,6.029,13.3020,4.60110,2470.591,2022-12-09T05:12:20Z
2022-12-09T03:09:27Z,42.805,6.029,13.3035,4.60125,2470.567,2022-12-09T05:15:23Z
2022-12-09T03:12:31Z,42.805,6.029,13.3032,4.60107,2470.577,2022-12-09T05:18:26Z
2022-12-09T03:15:34Z,42.805,6.029,13.3022,4.60089,2470.553,2022-12-09T05:21:29Z
2022-12-09T03:18:37Z,42.805,6.029,13.3022,4.60115,2470.577,2022-12-09T05:24:32Z
2022-12-09T03:21:40Z,42.805,6.029,13.3041,4.60111,2470.591,2022-12-09T05:27:35Z
2022-12-09T03:24:43Z,42.805,6.029,13.3036,4.60115,2470.563,2022-12-09T05:30:38Z
2022-12-09T03:27:46Z,42.805,6.029,13.3036,4.60111,2470.577,2022-12-09T05:33:41Z
2022-12-09T03:30:49Z,42.805,6.029,13.3029,4.60115,2470.553,2022-12-09T05:36:44Z
2022-12-09T03:33:52Z,42.805,6.029,13.3039,4.60119,2470.567,2022-12-09T05:39:47Z
2022-12-09T03:36:55Z,42.805,6.029,13.3043,4.60092,2470.553,2022-12-09T05:42:50Z
2022-12-09T03:39:58Z,42.805,6.029,13.3024,4.60115,2470.614,2022-12-09T05:45:54Z
2022-12-09T03:43:01Z,42.805,6.029,13.3024,4.60139,2470.553,2022-12-09T05:48:57Z
2022-12-09T03:46:04Z,42.805,6.029,13.3029,4.60119,2470.563,2022-12-09T05:52:00Z
2022-12-09T03:49:07Z,42.805,6.029,13.3037,4.60097,2470.637,2022-12-09T05:55:03Z
2022-12-09T03:52:11Z,42.805,6.029,13.3044,4.60117,2470.6,2022-12-09T05:58:06Z
2022-12-09T03:55:14Z,42.805,6.029,13.3031,4.60132,2470.6,2022-12-09T06:01:09Z
2022-12-09T03:58:17Z,42.805,6.029,13.3028,4.60125,2470.624,2022-12-09T06:04:12Z
2022-12-09T04:01:20Z,42.805,6.029,13.3051,4.60119,2470.6,2022-12-09T06:07:15Z
2022-12-09T04:04:23Z,42.805,6.029,13.3045,4.60125,2470.624,2022-12-09T06:10:18Z
2022-12-09T04:07:26Z,42.805,6.029,13.3048,4.60121,2470.6,2022-12-09T06:13:21Z
2022-12-09T04:10:29Z,42.805,6.029,13.3039,4.60114,2470.6,2022-12-09T06:16:24Z
2022-12-09T04:13:32Z,42.805,6.029,13.3034,4.60116,2470.624,2022-12-09T06:19:27Z
2022-12-09T04:16:35Z,42.805,6.029,13.3035,4.60120,2470.624,2022-12-09T06:22:31Z
2022-12-09T04:19:38Z,42.805,6.029,13.3039,4.60109,2470.614,2022-12-09T06:25:34Z
2022-12-09T04:22:41Z,42.805,6.029,13.3027,4.60098,2470.637,2022-12-09T06:28:37Z
2022-12-09T04:25:44Z,42.805,6.029,13.3022,4.60112,2470.624,2022-12-09T06:31:40Z
2022-12-09T04:28:48Z,42.805,6.029,13.3032,4.60120,2470.614,2022-12-09T06:34:43Z
2022-12-09T04:31:51Z,42.805,6.029,13.3035,4.60110,2470.646,2022-12-09T06:37:46Z
2022-12-09T04:34:54Z,42.805,6.029,13.3031,4.60107,2470.624,2022-12-09T06:40:49Z
2022-12-09T04:37:57Z,42.805,6.029,13.3025,4.60122,2470.646,2022-12-09T06:43:52Z
2022-12-09T04:41:00Z,42.805,6.029,13.3031,4.60115,2470.637,2022-12-09T06:46:55Z
2022-12-09T04:44:03Z,42.805,6.029,13.3041,4.60104,2470.646,2022-12-09T06:49:58Z
2022-12-09T04:47:06Z,42.805,6.029,13.3043,4.60117,2470.646,2022-12-09T06:53:01Z
2022-12-09T04:50:09Z,42.805,6.029,13.3036,4.60120,2470.684,2022-12-09T06:56:04Z
2022-12-09T04:53:12Z,42.805,6.029,13.3015,4.60116,2470.646,2022-12-09T06:59:08Z
2022-12-09T04:56:15Z,42.805,6.029,13.3030,4.60099,2470.707,2022-12-09T07:02:11Z
2022-12-09T04:59:18Z,42.805,6.029,13.3039,4.60121,2470.67,2022-12-09T07:05:14Z
2022-12-09T05:02:21Z,42.805,6.029,13.3028,4.60119,2470.67,2022-12-09T07:08:17Z
2022-12-09T05:05:25Z,42.805,6.029,13.3027,4.60103,2470.707,2022-12-09T07:11:20Z
2022-12-09T05:08:28Z,42.805,6.029,13.3024,4.60088,2470.707,2022-12-09T07:14:23Z
2022-12-09T05:11:31Z,42.805,6.029,13.3020,4.60089,2470.67,2022-12-09T07:17:26Z
2022-12-09T05:14:34Z,42.805,6.029,13.3029,4.60092,2470.693,2022-12-09T07:20:29Z
2022-12-09T05:17:37Z,42.805,6.029,13.3026,4.60096,2470.67,2022-12-09T07:23:32Z
2022-12-09T05:20:40Z,42.805,6.029,13.3025,4.60106,2470.73,2022-12-09T07:26:35Z
2022-12-09T05:23:43Z,42.805,6.029,13.3026,4.60102,2470.684,2022-12-09T07:29:38Z
2022-12-09T05:26:46Z,42.805,6.029,13.3020,4.60106,2470.67,2022-12-09T07:32:41Z
2022-12-09T05:29:49Z,42.805,6.029,13.3023,4.60098,2470.707,2022-12-09T07:35:45Z
2022-12-09T05:32:52Z,42.805,6.029,13.3037,4.60131,2470.717,2022-12-09T07:38:48Z
2022-12-09T05:35:55Z,42.805,6.029,13.3023,4.60098,2470.707,2022-12-09T07:41:51Z
2022-12-09T05:38:58Z,42.805,6.029,13.3026,4.60093,2470.707,2022-12-09T07:44:54Z
2022-12-09T05:42:02Z,42.805,6.029,13.3036,4.60127,2470.717,2022-12-09T07:47:57Z
2022-12-09T05:45:05Z,42.805,6.029,13.3023,4.60102,2470.707,2022-12-09T07:51:00Z
2022-12-09T05:48:08Z,42.805,6.029,13.3032,4.60093,2470.707,2022-12-09T07:54:03Z
2022-12-09T05:51:11Z,42.805,6.029,13.3024,4.60086,2470.717,2022-12-09T07:57:06Z
2022-12-09T05:54:14Z,42.805,6.029,13.3024,4.60104,2470.74,2022-12-09T08:00:09Z
2022-12-09T05:57:17Z,42.805,6.029,13.3031,4.60107,2470.754,2022-12-09T08:03:12Z
2022-12-09T06:00:20Z,42.805,6.029,13.3039,4.60094,2470.754,2022-12-09T08:06:15Z
2022-12-09T06:03:23Z,42.805,6.029,13.3031,4.60137,2470.74,2022-12-09T08:09:18Z
2022-12-09T06:06:26Z,42.805,6.029,13.3033,4.60120,2470.717,2022-12-09T08:12:22Z
2022-12-09T06:09:29Z,42.805,6.029,13.3019,4.60122,2470.763,2022-12-09T08:15:25Z
2022-12-09T06:12:32Z,42.805,6.029,13.3018,4.60095,2470.717,2022-12-09T08:18:28Z
2022-12-09T06:15:35Z,42.805,6.029,13.3025,4.60106,2470.777,2022-12-09T08:21:31Z
2022-12-09T06:18:38Z,42.805,6.029,13.3026,4.60092,2470.73,2022-12-09T08:24:34Z
2022-12-09T06:21:42Z,42.805,6.029,13.3027,4.60099,2470.74,2022-12-09T08:27:37Z
2022-12-09T06:24:45Z,42.805,6.029,13.3034,4.60124,2470.74,2022-12-09T08:30:40Z
2022-12-09T06:27:48Z,42.805,6.029,13.3053,4.60121,2470.754,2022-12-09T08:33:43Z
2022-12-09T06:30:51Z,42.805,6.029,13.3034,4.60099,2470.74,2022-12-09T08:36:46Z
2022-12-09T06:33:54Z,42.805,6.029,13.3032,4.60108,2470.703,2022-12-09T08:39:49Z
2022-12-09T06:36:57Z,42.805,6.029,13.3023,4.60078,2470.763,2022-12-09T08:42:52Z
2022-12-09T06:40:00Z,42.805,6.029,13.3026,4.60099,2470.717,2022-12-09T08:45:55Z
2022-12-09T06:43:03Z,42.805,6.029,13.3026,4.60095,2470.763,2022-12-09T08:48:59Z
2022-12-09T06:46:06Z,42.805,6.029,13.3018,4.60080,2470.763,2022-12-09T08:52:02Z
2022-12-09T06:49:09Z,42.805,6.029,13.3045,4.60081,2470.787,2022-12-09T08:55:05Z
2022-12-09T06:52:12Z,42.805,6.029,13.3017,4.60101,2470.74,2022-12-09T08:58:08Z
2022-12-09T06:55:15Z,42.805,6.029,13.3017,4.60097,2470.763,2022-12-09T09:01:11Z
2022-12-09T06:58:19Z,42.805,6.029,13.3033,4.60107,2470.763,2022-12-09T09:04:14Z
2022-12-09T07:01:22Z,42.805,6.029,13.3028,4.60076,2470.763,2022-12-09T09:07:17Z
2022-12-09T07:04:25Z,42.805,6.029,13.3018,4.60086,2470.777,2022-12-09T09:10:20Z
2022-12-09T07:07:28Z,42.805,6.029,13.3021,4.60095,2470.777,2022-12-09T09:13:23Z
2022-12-09T07:10:31Z,42.805,6.029,13.3039,4.60095,2470.787,2022-12-09T09:16:26Z
2022-12-09T07:13:34Z,42.805,6.029,13.3054,4.60134,2470.777,2022-12-09T09:19:29Z
2022-12-09T07:16:37Z,42.805,6.029,13.3062,4.60165,2470.787,2022-12-09T09:22:32Z
2022-12-09T07:19:40Z,42.805,6.029,13.3071,4.60132,2470.777,2022-12-09T09:25:36Z
2022-12-09T07:22:43Z,42.805,6.029,13.3070,4.60148,2470.787,2022-12-09T09:28:39Z
2022-12-09T07:25:46Z,42.805,6.029,13.3058,4.60135,2470.787,2022-12-09T09:31:42Z
2022-12-09T07:28:49Z,42.805,6.029,13.3071,4.60115,2470.777,2022-12-09T09:34:45Z
2022-12-09T07:31:52Z,42.805,6.029,13.3024,4.60153,2470.787,2022-12-09T09:37:48Z
2022-12-09T07:34:55Z,42.805,6.029,13.3033,4.60160,2470.81,2022-12-09T09:40:51Z
2022-12-09T07:37:59Z,42.805,6.029,13.3037,4.60122,2470.787,2022-12-09T09:43:54Z
2022-12-09T07:41:02Z,42.805,6.029,13.3029,4.60086,2470.8,2022-12-09T09:46:57Z
2022-12-09T07:44:05Z,42.805,6.029,13.3045,4.60091,2470.787,2022-12-09T09:50:00Z
2022-12-09T07:47:08Z,42.805,6.029,13.3041,4.60094,2470.8,2022-12-09T09:53:03Z
2022-12-09T07:50:11Z,42.805,6.029,13.3024,4.60112,2470.8,2022-12-09T09:56:06Z
2022-12-09T07:53:14Z,42.805,6.029,13.3034,4.60160,2470.8,2022-12-09T09:59:09Z
2022-12-09T07:56:17Z,42.805,6.029,13.3030,4.60129,2470.787,2022-12-09T10:02:12Z
2022-12-09T07:59:20Z,42.805,6.029,13.3034,4.60094,2470.787,2022-12-09T10:05:16Z
2022-12-09T08:02:23Z,42.805,6.029,13.3031,4.60155,2470.787,2022-12-09T10:08:19Z
2022-12-09T08:05:26Z,42.805,6.029,13.3043,4.60123,2470.787,2022-12-09T10:11:22Z
2022-12-09T08:08:29Z,42.805,6.029,13.3035,4.60132,2470.763,2022-12-09T10:14:25Z
2022-12-09T08:11:32Z,42.805,6.029,13.3041,4.60086,2470.8,2022-12-09T10:17:28Z
2022-12-09T08:14:36Z,42.805,6.029,13.3030,4.60094,2470.763,2022-12-09T10:20:31Z
2022-12-09T08:17:39Z,42.805,6.029,13.3031,4.60231,2470.8,2022-12-09T10:23:34Z
2022-12-09T08:20:42Z,42.805,6.029,13.3039,4.60144,2470.787,2022-12-09T10:26:37Z
2022-12-09T08:23:45Z,42.805,6.029,13.3042,4.60138,2470.763,2022-12-09T10:29:40Z
2022-12-09T08:26:48Z,42.805,6.029,13.3063,4.60117,2470.787,2022-12-09T10:32:43Z
2022-12-09T08:29:51Z,42.805,6.029,13.3043,4.60134,2470.833,2022-12-09T10:35:46Z
2022-12-09T08:32:54Z,42.805,6.029,13.3034,4.60165,2470.8,2022-12-09T10:38:50Z
2022-12-09T08:35:57Z,42.805,6.029,13.3057,4.60123,2470.8,2022-12-09T10:41:53Z
2022-12-09T08:39:00Z,42.805,6.029,13.3046,4.60120,2470.824,2022-12-09T10:44:56Z
2022-12-09T08:42:03Z,42.805,6.029,13.3035,4.60119,2470.787,2022-12-09T10:47:59Z
2022-12-09T08:45:06Z,42.805,6.029,13.3040,4.60107,2470.777,2022-12-09T10:51:02Z
2022-12-09T08:48:09Z,42.805,6.029,13.3047,4.60130,2470.81,2022-12-09T10:54:05Z
2022-12-09T08:51:13Z,42.805,6.029,13.3049,4.60104,2470.777,2022-12-09T10:57:08Z
2022-12-09T08:54:16Z,42.805,6.029,13.3043,4.60097,2470.8,2022-12-09T11:00:11Z
2022-12-09T08:57:19Z,42.805,6.029,13.3043,4.60104,2470.787,2022-12-09T11:03:14Z
2022-12-09T09:00:22Z,42.805,6.029,13.3060,4.60105,2470.763,2022-12-09T11:06:17Z
2022-12-09T09:03:25Z,42.805,6.029,13.3043,4.60146,2470.777,2022-12-09T11:09:20Z
2022-12-09T09:06:28Z,42.805,6.029,13.3053,4.60147,2470.787,2022-12-09T11:12:24Z
2022-12-09T09:09:31Z,42.805,6.029,13.3078,4.60129,2470.8,2022-12-09T11:15:27Z
2022-12-09T09:12:34Z,42.805,6.029,13.3093,4.60137,2470.787,2022-12-09T11:18:30Z
2022-12-09T09:15:37Z,42.805,6.029,13.3067,4.60119,2470.8,2022-12-09T11:21:33Z
2022-12-09T09:18:40Z,42.805,6.029,13.3068,4.60122,2470.74,2022-12-09T11:24:36Z
2022-12-09T09:21:43Z,42.805,6.029,13.3063,4.60088,2470.8,2022-12-09T11:27:39Z
2022-12-09T09:24:46Z,42.805,6.029,13.3057,4.60107,2470.81,2022-12-09T11:30:42Z
2022-12-09T09:27:50Z,42.805,6.029,13.3047,4.60132,2470.81,2022-12-09T11:33:45Z
2022-12-09T09:30:53Z,42.805,6.029,13.3052,4.60098,2470.777,2022-12-09T11:36:48Z
2022-12-09T09:33:56Z,42.805,6.029,13.3056,4.60132,2470.787,2022-12-09T11:39:51Z
2022-12-09T09:36:59Z,42.805,6.029,13.3048,4.60123,2470.763,2022-12-09T11:42:54Z
2022-12-09T09:40:02Z,42.805,6.029,13.3032,4.60110,2470.8,2022-12-09T11:45:57Z
2022-12-09T09:43:05Z,42.805,6.029,13.3052,4.60135,2470.777,2022-12-09T11:49:01Z
2022-12-09T09:46:08Z,42.805,6.029,13.3053,4.60106,2470.81,2022-12-09T11:52:04Z
2022-12-09T09:49:11Z,42.805,6.029,13.3070,4.60103,2470.754,2022-12-09T11:55:07Z
2022-12-09T09:52:14Z,42.805,6.029,13.3052,4.60103,2470.763,2022-12-09T11:58:10Z
2022-12-09T09:55:17Z,42.805,6.029,13.3060,4.60103,2470.754,2022-12-09T12:01:13Z
2022-12-09T09:58:20Z,42.805,6.029,13.3057,4.60092,2470.777,2022-12-09T12:04:16Z
2022-12-09T10:01:23Z,42.805,6.029,13.3049,4.60111,2470.777,2022-12-09T12:07:19Z
2022-12-09T10:04:27Z,42.805,6.029,13.3052,4.60116,2470.74,2022-12-09T12:10:22Z
2022-12-09T10:07:30Z,42.805,6.029,13.3083,4.60107,2470.8,2022-12-09T12:13:25Z
2022-12-09T10:10:33Z,42.805,6.029,13.3085,4.60106,2470.777,2022-12-09T12:16:28Z
2022-12-09T10:13:36Z,42.805,6.029,13.3080,4.60103,2470.754,2022-12-09T12:19:31Z
2022-12-09T10:16:39Z,42.805,6.029,13.3058,4.60141,2470.754,2022-12-09T12:22:35Z
2022-12-09T10:19:42Z,42.805,6.029,13.3084,4.60128,2470.763,2022-12-09T12:25:38Z
2022-12-09T10:22:45Z,42.805,6.029,13.3092,4.60127,2470.74,2022-12-09T12:28:41Z
2022-12-09T10:25:48Z,42.805,6.029,13.3070,4.60125,2470.754,2022-12-09T12:31:44Z
2022-12-09T10:28:51Z,42.805,6.029,13.3075,4.60103,2470.754,2022-12-09T12:34:47Z
2022-12-09T10:31:54Z,42.805,6.029,13.3077,4.60126,2470.754,2022-12-09T12:37:50Z
2022-12-09T10:34:57Z,42.805,6.029,13.3054,4.60102,2470.74,2022-12-09T12:40:53Z
2022-12-09T10:38:01Z,42.805,6.029,13.3046,4.60127,2470.74,2022-12-09T12:43:56Z
2022-12-09T10:41:04Z,42.805,6.029,13.3039,4.60118,2470.74,2022-12-09T12:46:59Z
2022-12-09T10:44:07Z,42.805,6.029,13.3048,4.60129,2470.717,2022-12-09T12:50:02Z
2022-12-09T10:47:10Z,42.805,6.029,13.3064,4.60092,2470.73,2022-12-09T12:53:05Z
2022-12-09T10:50:13Z,42.805,6.029,13.3044,4.60120,2470.693,2022-12-09T12:56:08Z
2022-12-09T10:53:16Z,42.805,6.029,13.3053,4.60118,2470.693,2022-12-09T12:59:12Z
2022-12-09T10:56:19Z,42.805,6.029,13.3040,4.60087,2470.717,2022-12-09T13:02:15Z
2022-12-09T10:59:22Z,42.805,6.029,13.3051,4.60074,2470.707,2022-12-09T13:05:18Z
2022-12-09T11:02:25Z,42.805,6.029,13.3079,4.60085,2470.717,2022-12-09T13:08:21Z
2022-12-09T11:05:28Z,42.805,6.029,13.3033,4.60087,2470.693,2022-12-09T13:11:24Z
2022-12-09T11:08:31Z,42.805,6.029,13.3039,4.60100,2470.73,2022-12-09T13:14:27Z
2022-12-09T11:11:34Z,42.805,6.029,13.3035,4.60142,2470.693,2022-12-09T13:17:30Z
2022-12-09T11:14:38Z,42.805,6.029,13.3043,4.60140,2470.67,2022-12-09T13:20:33Z
2022-12-09T11:17:41Z,42.805,6.029,13.3051,4.60179,2470.707,2022-12-09T13:23:36Z
2022-12-09T11:20:44Z,42.805,6.029,13.3056,4.60111,2470.707,2022-12-09T13:26:39Z
2022-12-09T11:23:47Z,42.805,6.029,13.3052,4.60125,2470.707,2022-12-09T13:29:42Z
2022-12-09T11:26:50Z,42.805,6.029,13.3053,4.60145,2470.707,2022-12-09T13:32:46Z
2022-12-09T11:29:53Z,42.805,6.029,13.3046,4.60130,2470.693,2022-12-09T13:35:49Z
2022-12-09T11:32:56Z,42.805,6.029,13.3041,4.60176,2470.73,2022-12-09T13:38:52Z
2022-12-09T11:35:59Z,42.805,6.029,13.3043,4.60121,2470.684,2022-12-09T13:41:55Z
2022-12-09T11:39:02Z,42.805,6.029,13.3039,4.60152,2470.707,2022-12-09T13:44:58Z
2022-12-09T11:42:05Z,42.805,6.029,13.3029,4.60163,2470.67,2022-12-09T13:48:01Z
2022-12-09T11:45:08Z,42.805,6.029,13.3034,4.60135,2470.717,2022-12-09T13:51:04Z
2022-12-09T11:48:11Z,42.805,6.029,13.3039,4.60157,2470.73,2022-12-09T13:54:07Z
2022-12-09T11:51:15Z,42.805,6.029,13.3024,4.60136,2470.67,2022-12-09T13:57:10Z
2022-12-09T11:54:18Z,42.805,6.029,13.3031,4.60125,2470.693,2022-12-09T14:00:13Z
2022-12-09T11:57:21Z,42.805,6.029,13.3034,4.60119,2470.693,2022-12-09T14:03:16Z
2022-12-09T12:00:24Z,42.805,6.029,13.3035,4.60127,2470.646,2022-12-09T14:06:19Z
2022-12-09T12:03:27Z,42.805,6.029,13.3031,4.60117,2470.67,2022-12-09T14:09:23Z
2022-12-09T12:06:30Z,42.805,6.029,13.3037,4.60146,2470.693,2022-12-09T14:12:26Z
2022-12-09T12:09:33Z,42.805,6.029,13.3044,4.60142,2470.684,2022-12-09T14:15:29Z
2022-12-09T12:12:36Z,42.805,6.029,13.3059,4.60123,2470.661,2022-12-09T14:18:32Z
2022-12-09T12:15:39Z,42.805,6.029,13.3031,4.60132,2470.693,2022-12-09T14:21:35Z
2022-12-09T12:18:42Z,42.805,6.029,13.3041,4.60133,2470.646,2022-12-09T14:24:38Z
2022-12-09T12:21:45Z,42.805,6.029,13.3029,4.60132,2470.693,2022-12-09T14:27:41Z
2022-12-09T12:24:48Z,42.805,6.029,13.3019,4.60115,2470.717,2022-12-09T14:30:44Z
2022-12-09T12:27:52Z,42.805,6.029,13.3033,4.60135,2470.67,2022-12-09T14:33:47Z
2022-12-09T12:30:55Z,42.805,6.029,13.3036,4.60152,2470.684,2022-12-09T14:36:50Z
2022-12-09T12:33:58Z,42.805,6.029,13.3036,4.60146,2470.67,2022-12-09T14:39:53Z
2022-12-09T12:37:01Z,42.805,6.029,13.3029,4.60116,2470.67,2022-12-09T14:42:57Z
2022-12-09T12:40:04Z,42.805,6.029,13.3022,4.60124,2470.693,2022-12-09T14:46:00Z
2022-12-09T12:43:07Z,42.805,6.029,13.3026,4.60148,2470.624,2022-12-09T14:49:03Z
2022-12-09T12:46:10Z,42.805,6.029,13.3030,4.60130,2470.67,2022-12-09T14:52:06Z
2022-12-09T12:49:13Z,42.805,6.029,13.3045,4.60132,2470.693,2022-12-09T14:55:09Z
2022-12-09T12:52:16Z,42.805,6.029,13.3046,4.60144,2470.637,2022-12-09T14:58:12Z
2022-12-09T12:55:19Z,42.805,6.029,13.3026,4.60158,2470.646,2022-12-09T15:01:15Z
2022-12-09T12:58:22Z,42.805,6.029,13.3026,4.60144,2470.684,2022-12-09T15:04:18Z
2022-12-09T13:01:26Z,42.805,6.029,13.3025,4.60132,2470.661,2022-12-09T15:07:21Z
2022-12-09T13:04:29Z,42.805,6.029,13.3026,4.60160,2470.646,2022-12-09T15:10:24Z
2022-12-09T13:07:32Z,42.805,6.029,13.3025,4.60135,2470.684,2022-12-09T15:13:27Z
2022-12-09T13:10:35Z,42.805,6.029,13.3026,4.60110,2470.637,2022-12-09T15:16:30Z
2022-12-09T13:13:38Z,42.805,6.029,13.3043,4.60134,2470.637,2022-12-09T15:19:34Z
2022-12-09T13:16:41Z,42.805,6.029,13.3034,4.60134,2470.6,2022-12-09T15:22:37Z
2022-12-09T13:19:44Z,42.805,6.029,13.3016,4.60119,2470.67,2022-12-09T15:25:40Z
2022-12-09T13:22:47Z,42.805,6.029,13.3029,4.60128,2470.646,2022-12-09T15:28:43Z
2022-12-09T13:25:50Z,42.805,6.029,13.3026,4.60141,2470.637,2022-12-09T15:31:46Z
2022-12-09T13:28:53Z,42.805,6.029,13.3035,4.60127,2470.624,2022-12-09T15:34:49Z
2022-12-09T13:31:56Z,42.805,6.029,13.3031,4.60140,2470.637,2022-12-09T15:37:52Z
2022-12-09T13:35:00Z,42.805,6.029,13.3028,4.60147,2470.624,2022-12-09T15:40:55Z
2022-12-09T13:38:03Z,42.805,6.029,13.3035,4.60144,2470.646,2022-12-09T15:43:58Z
2022-12-09T13:41:06Z,42.805,6.029,13.3033,4.60134,2470.624,2022-12-09T15:47:01Z
2022-12-09T13:44:09Z,42.805,6.029,13.3032,4.60137,2470.661,2022-12-09T15:50:04Z
2022-12-09T13:47:12Z,42.805,6.029,13.3033,4.60144,2470.637,2022-12-09T15:53:08Z
2022-12-09T13:50:15Z,42.805,6.029,13.3039,4.60129,2470.637,2022-12-09T15:56:11Z
2022-12-09T13:53:18Z,42.805,6.029,13.3034,4.60121,2470.624,2022-12-09T15:59:14Z
2022-12-09T13:56:21Z,42.805,6.029,13.3025,4.60114,2470.624,2022-12-09T16:02:17Z
2022-12-09T13:59:24Z,42.805,6.029,13.3034,4.60118,2470.661,2022-12-09T16:05:20Z
2022-12-09T14:02:27Z,42.805,6.029,13.3029,4.60120,2470.624,2022-12-09T16:08:23Z
2022-12-09T14:05:30Z,42.805,6.029,13.3044,4.60115,2470.577,2022-12-09T16:11:26Z
2022-12-09T14:08:33Z,42.805,6.029,13.3039,4.60124,2470.614,2022-12-09T16:14:29Z
2022-12-09T14:11:37Z,42.805,6.029,13.3027,4.60104,2470.637,2022-12-09T16:17:32Z
2022-12-09T14:14:40Z,42.805,6.029,13.3022,4.60108,2470.624,2022-12-09T16:20:35Z
2022-12-09T14:17:43Z,42.805,6.029,13.3025,4.60122,2470.661,2022-12-09T16:23:38Z
2022-12-09T14:20:46Z,42.805,6.029,13.3047,4.60121,2470.637,2022-12-09T16:26:42Z
2022-12-09T14:23:49Z,42.805,6.029,13.3032,4.60122,2470.6,2022-12-09T16:29:45Z
2022-12-09T14:26:52Z,42.805,6.029,13.3029,4.60117,2470.637,2022-12-09T16:32:48Z
2022-12-09T14:29:55Z,42.805,6.029,13.3024,4.60111,2470.6,2022-12-09T16:35:51Z
2022-12-09T14:32:58Z,42.805,6.029,13.3023,4.60105,2470.637,2022-12-09T16:38:54Z
2022-12-09T14:36:01Z,42.805,6.029,13.3031,4.60090,2470.624,2022-12-09T16:41:57Z
2022-12-09T14:39:04Z,42.805,6.029,13.3036,4.60117,2470.577,2022-12-09T16:45:00Z
2022-12-09T14:42:07Z,42.805,6.029,13.3033,4.60115,2470.6,2022-12-09T16:48:03Z
2022-12-09T14:45:10Z,42.805,6.029,13.3024,4.60111,2470.624,2022-12-09T16:51:06Z
2022-12-09T14:48:14Z,42.805,6.029,13.3025,4.60104,2470.614,2022-12-09T16:54:09Z
2022-12-09T14:51:17Z,42.805,6.029,13.3041,4.60127,2470.624,2022-12-09T16:57:12Z
2022-12-09T14:54:20Z,42.805,6.029,13.3029,4.60112,2470.6,2022-12-09T17:00:15Z
2022-12-09T14:57:23Z,42.805,6.029,13.3027,4.60105,2470.591,2022-12-09T17:03:19Z
2022-12-09T15:00:26Z,42.805,6.029,13.3030,4.60109,2470.624,2022-12-09T17:06:22Z